Location: Kra?nica
(53.4833°N, 14.6167°E)
Time: 06:41:08
(UTC+00:00)

BREEZE-M DEB (TANK) - Pass Details

Date: 23 May 2024
Orbit: 290 x 16913 km, 49.4° (Epoch: 15 June)

Event Time Altitude Azimuth Distance (km) Brightness Sun altitude
Exits shadow 00:08:02 23° 212° (SSW) 1,333 4.2 -14.4°
Maximum altitude 00:08:49 24° 193° (SSW) 1,433 4.3 -14.3°
Drops below altitude 10° 00:14:51 10° 142° (SE) 3,804 6.7 -14.1°
Sets 00:21:31 0° 133° (SE) 6,690 8.1 -13.7°
